Wind_Speed
16 18 18 17 18 15 17 19 18 20 20 16 17 19 16 18 19 18 17 18 17 16 16 15 15 16 16 15 15 13 8 2 2 3 7 19 22 25 22 23 22 23 19
19 17 16 16 17 17 17 16 18 20 18 16 15 16 16 17 20 19 18 19 12 14 15 14 13 12 12 11 15 12 6 6 4 3 10 9 20 23 22 24 25 24 22
19 18 18 17 18 16 17 19 19 18 18 18 18 22 21 18 15 16 13 14 13 12 15 10 12 13 15 14 12 13 13 3 3 5 7 14 16 25 24 23 22 23 21
20 19 20 20 16 17 20 22 19 19 20 18 18 17 12 8 11 10 12 15 14 11 10 14 14 15 14 14 14 13 11 8 5 9 13 14 16 20 22 21 18 19 21
21 21 17 18 18 21 22 21 20 19 17 15 14 9 7 9 9 9 9 13 13 14 16 15 15 13 13 13 11 12 11 7 5 11 10 12 15 15 14 16 18 20 18
20 18 19 21 23 21 18 17 16 14 12 11 9 5 4 9 10 8 6 7 9 12 13 14 16 18 19 10 10 8 9 7 4 5 7 12 11 16 18 20 16 15 4
18 22 21 18 18 17 16 15 15 12 11 10 7 4 9 13 13 10 6 3 6 9 12 13 15 17 20 14 9 8 5 4 2 3 14 15 17 19 21 16 6 8 10
22 19 15 16 18 17 16 13 15 14 12 9 9 9 14 17 15 13 7 2 2 9 14 15 16 18 19 12 10 11 10 8 3 6 12 16 19 18 15 15 18 18 13
15 15 15 16 11 16 17 14 16 15 11 7 11 12 12 17 18 17 13 7 5 7 13 18 20 19 17 12 7 10 12 13 10 11 14 17 21 16 9 14 17 14 6
14 13 12 16 11 16 15 16 14 16 13 10 9 10 12 13 18 19 15 16 7 8 10 16 19 18 15 13 10 10 16 16 25 29 28 27 20 16 13 12 14 6 11
15 13 14 14 16 14 16 18 21 18 14 17 20 14 10 17 16 17 16 16 12 11 12 13 15 17 17 14 14 13 17 24 26 30 28 24 19 17 17 16 12 8 9
17 19 22 11 13 13 14 19 20 24 20 19 20 18 18 15 14 16 15 13 8 9 12 12 12 13 17 15 15 15 22 28 27 27 26 23 23 22 20 19 17 16 14
15 17 15 12 12 16 18 22 22 20 17 17 17 17 17 18 16 13 14 11 10 12 12 13 11 12 17 18 18 20 25 26 25 25 22 21 21 18 19 21 23 24 25
11 14 14 9 9 15 18 18 21 20 18 19 15 13 16 16 17 17 13 11 9 9 12 12 12 14 18 22 23 24 25 26 25 22 22 20 18 18 20 20 24 25 30
14 13 11 12 7 13 17 15 17 15 16 16 17 16 13 16 16 12 12 12 13 11 14 15 17 19 20 22 24 23 22 22 22 20 19 20 20 21 20 19 22 24 26
14 16 15 18 17 12 10 10 13 13 14 13 15 17 17 9 14 12 13 14 16 16 20 18 18 19 19 20 20 21 20 21 19 19 22 21 20 20 21 21 21 20 20
18 17 17 16 17 16 14 13 13 14 11 13 15 17 19 20 18 18 18 20 21 21 20 19 18 19 20 21 20 20 20 19 18 22 23 22 21 21 21 21 19 19 17
22 19 18 17 15 15 15 14 13 13 13 14 15 16 18 18 16 16 19 21 21 22 21 19 19 20 20 20 20 20 19 19 20 20 21 21 20 20 20 21 19 17 15
19 19 17 16 17 16 16 15 15 16 15 15 17 17 18 17 17 20 22 22 19 19 19 20 20 19 20 21 20 19 17 19 20 21 20 19 19 22 22 18 15 13 11
23 21 22 19 17 16 16 17 17 17 18 18 19 18 17 19 22 24 25 24 22 21 21 21 21 21 19 18 17 19 22 22 21 19 18 18 19 20 18 14 10 8 9
23 25 19 19 22 22 21 17 20 19 18 19 18 17 17 20 22 25 25 26 25 23 23 22 19 18 16 19 23 22 21 19 18 19 19 17 16 15 11 7 5 6 7
20 13 14 20 21 23 25 23 24 22 20 18 16 18 18 18 20 21 23 23 24 27 24 23 23 23 20 16 15 13 16 19 20 20 19 16 12 8 5 1 3 7 10
22 15 15 16 17 18 29 29 29 27 25 25 26 25 24 24 26 26 26 26 24 25 24 24 22 20 18 18 21 19 19 18 16 12 12 11 7 4 3 9 15 20 18
14 14 16 16 14 13 19 26 25 28 23 21 25 27 27 25 26 27 30 28 25 25 24 23 21 19 17 15 13 14 14 12 12 8 3 4 3 3 7 12 15 23 29
10 8 7 9 12 12 15 14 15 20 23 23 23 20 25 28 24 26 30 31 31 28 27 27 25 23 21 21 21 18 16 14 11 7 3 5 9 12 15 16 22 27 27
9 11 11 11 10 20 22 18 19 20 20 19 20 26 27 28 30 30 28 26 26 27 28 29 29 31 31 28 22 22 22 24 23 19 20 22 25 26 26 25 27 27 27
Wind_Direction
19 10 2 347 341 346 337 345 345 341 335 337 341 338 343 338 337 340 341 342 342 344 341 337 339 338 341 349 346 348 349 290 281 98 115 134 126 121 114 107 103 99 90
0 357 347 345 340 345 345 346 345 348 354 346 340 332 329 328 332 331 338 335 336 339 342 341 345 360 17 10 12 4 1 18 18 122 119 98 124 130 120 107 103 100 93
358 349 343 346 345 349 350 342 338 330 336 339 330 324 325 328 346 350 359 3 5 4 15 26 39 22 18 20 16 9 13 5 357 177 124 122 115 131 119 110 105 107 94
345 347 345 346 354 349 342 335 332 330 329 329 324 330 354 1 345 11 17 12 18 19 23 43 41 32 24 25 23 8 1 4 9 155 130 128 129 130 124 123 116 110 101
343 341 347 346 345 338 328 331 332 327 330 323 322 337 2 351 356 360 18 25 39 48 49 48 44 38 30 28 20 10 6 3 8 134 126 129 135 136 128 133 125 112 98
343 342 338 333 333 335 332 343 344 346 346 338 333 340 34 8 7 355 3 36 41 25 26 31 28 17 14 11 17 13 3 5 336 142 133 144 141 130 142 141 130 130 116
337 332 334 344 348 353 346 348 350 355 360 5 21 63 37 18 8 353 322 360 32 38 31 26 18 12 12 16 25 17 24 9 250 161 161 154 141 150 148 145 148 134 122
332 341 346 352 351 353 357 2 12 14 11 36 47 58 39 25 18 4 326 247 32 61 50 32 20 12 13 11 30 22 25 29 102 169 177 164 154 144 133 119 124 117 124
343 349 350 356 14 6 14 21 28 21 29 50 56 51 29 26 30 35 44 113 129 83 44 30 24 17 16 35 32 33 46 54 86 120 135 132 125 115 105 129 140 130 116
347 354 343 7 9 20 26 28 34 31 27 38 58 35 37 42 35 35 47 52 98 108 50 34 30 26 30 40 58 64 56 71 97 104 107 108 104 101 105 129 175 135 104
348 340 3 24 32 35 38 33 22 23 41 39 50 48 39 38 38 34 38 50 74 71 50 37 28 32 37 52 63 77 89 100 98 100 102 102 91 83 85 91 114 112 123
7 13 9 40 37 35 41 24 29 37 43 40 34 22 23 29 26 35 28 35 51 74 63 53 37 42 49 67 79 98 107 104 96 92 87 79 79 76 77 83 92 102 106
4 13 12 26 42 50 44 41 44 42 35 34 25 19 13 18 20 27 44 43 66 76 66 58 59 63 73 73 88 103 107 99 90 85 86 88 90 98 102 98 98 95 92
4 11 10 23 34 50 59 43 44 43 37 24 12 7 10 17 25 27 42 61 61 86 72 65 73 79 83 85 86 90 91 90 87 88 93 100 103 101 93 96 95 90 89
3 5 38 46 65 62 59 53 51 48 38 31 22 18 2 8 18 32 45 66 76 82 87 82 80 79 80 73 76 85 91 92 92 99 101 100 97 95 93 92 90 93 94
31 33 61 65 67 63 59 48 37 46 34 34 29 27 25 35 46 69 64 79 91 92 87 69 67 64 63 68 72 79 89 93 93 96 96 94 93 91 90 96 97 95 99
50 65 70 62 64 57 52 46 36 29 30 37 37 37 51 65 68 74 77 79 86 85 75 74 67 68 72 78 79 86 85 84 91 97 95 94 95 100 98 99 99 102 98
65 66 68 61 55 47 49 45 36 24 17 32 47 53 69 72 70 67 77 85 77 80 79 77 78 81 85 86 85 83 84 92 98 101 105 104 104 104 104 109 111 106 101
71 71 66 58 56 57 55 52 48 40 42 49 65 69 74 81 72 66 69 67 74 78 80 85 89 91 94 87 89 88 92 99 105 108 107 102 109 115 124 120 113 100 85
73 67 69 69 70 71 63 46 38 41 49 60 66 66 79 79 60 59 64 69 76 80 85 90 94 96 88 89 89 95 100 103 107 108 113 116 120 126 125 119 100 63 40
82 91 79 50 40 50 67 57 55 59 63 65 68 72 78 76 66 59 64 76 78 87 92 88 86 79 85 95 96 93 92 97 107 113 115 116 118 120 122 110 69 42 28
94 94 69 50 60 52 54 63 61 68 71 69 69 69 68 71 72 80 78 79 83 85 87 85 84 93 89 76 66 75 95 102 107 109 108 108 109 118 123 39 340 330 328
94 78 55 56 48 55 60 64 63 70 73 80 79 76 73 75 78 80 86 91 85 82 84 81 74 73 77 79 94 83 86 90 90 94 111 111 110 101 31 355 348 342 348
105 79 53 41 51 70 81 68 73 72 73 69 77 79 76 74 81 83 91 85 82 84 83 81 79 80 88 88 84 85 84 74 61 48 117 106 75 27 3 3 40 66 76
127 126 68 46 50 48 80 109 77 85 79 63 62 79 82 77 75 81 84 82 77 72 69 71 75 77 80 82 84 87 87 85 83 78 50 345 345 345 14 51 79 70 70
131 120 69 55 66 71 74 87 85 72 69 69 70 83 87 84 80 75 75 79 80 78 76 74 74 75 73 70 69 69 75 76 76 81 75 77 81 79 79 78 77 77 77
Height
820 818 815 814 812 807 805 802 800 797 795 792 790 787 784 780 777 774 771 767 764 762 759 756 753 750 745 743 741 738 735 734 733 733 732 735 736 737 741 741 744 747 752
819 816 814 811 810 806 802 800 799 796 794 791 789 786 783 779 777 773 770 766 762 760 757 754 752 749 746 743 741 737 736 735 733 732 733 735 737 741 741 744 746 753 755
820 817 813 810 807 803 801 800 797 795 793 791 788 784 781 778 776 772 769 766 762 760 755 753 751 748 745 743 741 739 736 736 734 733 735 737 739 743 745 749 752 756 758
820 816 812 808 805 803 800 798 796 794 792 789 786 783 780 778 776 772 769 766 762 760 757 754 752 750 747 745 742 740 737 736 734 732 734 737 741 745 747 749 755 759 760
819 815 811 808 805 802 800 797 794 792 789 787 785 782 780 778 775 773 770 768 765 762 760 758 756 754 751 748 745 742 739 736 735 735 735 739 743 746 749 753 755 760 761
819 815 812 809 805 802 799 796 794 791 788 785 783 781 780 778 775 773 772 769 767 765 764 761 759 756 752 749 746 743 740 738 736 736 736 740 744 747 750 753 756 759 763
820 816 812 809 806 802 799 796 793 790 787 784 782 781 780 778 776 773 771 770 768 766 765 763 761 758 753 749 747 744 742 739 737 736 736 740 744 747 752 756 758 758 760
819 816 813 810 806 803 799 796 793 790 786 784 783 782 782 779 776 772 768 768 768 768 766 763 761 757 753 750 748 743 740 737 736 736 737 740 744 750 754 756 756 759 763
819 816 813 810 806 803 799 797 794 791 788 786 785 784 782 780 776 772 768 768 768 769 767 764 762 758 754 750 748 745 741 738 737 737 740 744 749 753 756 757 761 762 763
818 815 813 810 807 804 801 798 795 792 790 788 786 785 783 781 778 776 773 770 769 769 769 766 764 760 756 752 750 747 744 743 742 744 746 751 754 756 756 756 759 760 758
819 816 813 811 808 805 803 800 797 794 792 790 788 786 785 783 780 777 775 772 772 771 770 768 766 763 759 755 753 750 749 748 749 750 752 756 758 758 759 760 760 759 762
820 817 814 812 809 807 804 801 799 796 795 792 791 788 786 784 781 779 777 775 773 772 771 770 768 766 763 760 757 755 754 754 755 756 759 762 762 763 763 764 766 768 769
820 817 816 813 810 808 806 804 801 799 797 796 794 791 788 785 782 779 777 776 775 773 773 773 771 769 766 763 762 761 760 760 762 763 767 770 772 773 774 774 773 772 771
819 817 815 813 811 809 808 807 804 802 801 799 796 793 790 787 784 781 778 777 776 775 775 775 773 772 770 768 767 766 767 768 768 771 773 776 778 779 778 778 776 776 774
820 818 816 814 813 812 811 810 807 806 804 801 798 795 791 788 785 783 781 779 779 778 778 777 777 776 775 774 774 774 775 775 776 779 780 781 782 783 783 783 781 780 780
822 820 819 818 817 815 814 813 811 809 807 804 801 798 793 790 788 785 784 783 782 782 782 782 782 781 780 780 780 782 782 782 783 783 784 786 786 786 787 787 786 786 788
825 823 823 821 820 818 816 815 813 811 809 806 804 800 797 794 792 790 789 788 788 787 786 787 787 787 787 787 787 788 788 788 788 788 788 790 791 791 791 791 792 792 794
829 827 826 825 823 821 819 818 816 813 811 809 807 804 802 800 798 796 794 794 793 793 792 793 793 793 793 793 793 793 793 793 793 794 794 795 795 796 796 796 797 798 799
833 832 830 828 826 824 823 821 818 816 814 812 810 809 807 805 804 801 799 798 798 799 799 799 800 800 800 799 799 798 798 798 798 799 800 800 801 801 801 803 803 804 804
838 836 834 833 831 828 826 824 821 820 818 817 815 814 813 811 809 807 806 805 805 805 805 805 806 806 805 804 803 803 804 804 804 805 805 806 807 807 808 809 809 809 809
844 842 840 837 835 832 831 828 827 825 824 822 821 821 818 816 815 814 813 812 812 812 812 812 812 812 811 810 811 810 810 810 810 811 811 812 813 813 813 812 811 810 809
849 847 846 843 840 838 836 833 831 830 829 828 827 826 824 822 821 820 820 819 819 819 819 818 818 818 818 818 817 816 816 816 817 817 818 818 818 817 816 815 813 812 810
853 851 849 849 846 845 843 840 838 836 835 833 832 831 830 829 828 828 826 827 827 827 826 826 825 824 824 823 823 823 823 823 823 823 822 821 821 819 818 818 816 813 810
857 856 853 852 850 850 851 849 846 844 842 840 839 839 837 836 835 835 835 834 834 834 833 832 831 830 829 829 828 828 827 828 828 827 826 826 824 823 823 822 820 816 813
861 860 857 856 853 853 854 855 852 850 849 846 844 846 845 843 843 843 843 842 842 841 840 839 837 836 835 835 835 835 834 834 833 831 830 829 827 826 825 824 823 821 819
864 864 860 859 859 858 857 857 856 855 853 852 851 851 851 851 850 850 850 849 848 848 846 845 845 843 842 840 840 839 838 838 836 834 833 832 831 830 829 828 827 827 826